Location: Hungerford
(51.4167°N, 1.5167°W)
Time: 05:14:45
(UTC+00:00)

Cosmos 1092 Rocket - Pass Details

Date: 18 September 2020
Orbit: 954 x 995 km, 82.9° (Epoch: 19 October)

Event Time Altitude Azimuth Distance (km) Brightness Sun altitude
Rises 19:47:28 0° 351° (N) 3,646 7.4 -15.2°
Reaches altitude 10° 19:50:02 10° 356° (N) 2,697 6.7 -15.6°
Maximum altitude 19:56:05 57° 75° (ENE) 1,127 4.1 -16.4°
Enters shadow 20:00:16 21° 147° (SSE) 2,034 5.2 -17.0°
